PY2KO-13 Weather Reports


time (UTC)temp
C
wind
direction
speed
KPH
gust
KPH
rain 1hr
cm
rain 24hr
cm
rain mn
cm
humidity
%
barometer
mb
20260509164505 27 0.0 0.0 0.00 0.00 0.00 48 1015.5
20260509161505 28 0.0 0.0 0.00 0.00 0.00 48 1015.7
20260509154504 27 0.0 0.0 0.00 0.00 0.00 48 1015.8
20260509151505 28 0.0 0.0 0.00 0.00 0.00 48 1016.3
20260509144505 28 0.0 0.0 0.00 0.00 0.00 49 1016.7
20260509141504 27 0.0 0.0 0.00 0.00 0.00 51 1017.2
20260509134505 26 0.0 0.0 0.00 0.00 0.00 52 1017.4
20260509131505 25 0.0 0.0 0.00 0.00 0.00 55 1017.7
20260509124504 26 0.0 0.0 0.00 0.00 0.00 53 1017.5
20260509121504 25 0.0 0.0 0.00 0.00 0.00 54 1017.1
20260509114505 25 0.0 0.0 0.00 0.00 0.00 56 1016.7
20260509111504 24 0.0 0.0 0.00 0.00 0.00 58 1016.5
20260509104505 24 0.0 0.0 0.00 0.00 0.00 58 1015.5
20260509101505 24 0.0 0.0 0.00 0.00 0.00 56 1015.2
20260509094505 25 0.0 0.0 0.00 0.00 0.00 54 1014.4
20260509091505 25 0.0 0.0 0.00 0.00 0.00 54 1014.2
20260509084504 24 0.0 0.0 0.00 0.00 0.00 55 1013.6
20260509081505 24 0.0 0.0 0.00 0.00 0.00 55 1013.3
20260509074504 25 0.0 0.0 0.00 0.00 0.00 54 1013.4
20260509071504 25 0.0 0.0 0.00 0.00 0.00 55 1013.4
20260509064505 25 0.0 0.0 0.00 0.00 0.00 55 1013.7
20260509061505 25 0.0 0.0 0.00 0.00 0.00 55 1013.5
20260509054504 25 0.0 0.0 0.00 0.00 0.00 55 1013.8
20260509051504 25 0.0 0.0 0.00 0.00 0.00 55 1013.8
20260509044504 25 0.0 0.0 0.00 0.00 0.00 56 1013.9
20260509041504 25 0.0 0.0 0.00 0.00 0.00 56 1014.0
20260509034504 25 0.0 0.0 0.00 0.00 0.00 56 1014.0
20260509031506 25 0.0 0.0 0.00 0.00 0.00 56 1013.9
20260509024504 24 0.0 0.0 0.00 0.00 0.00 58 1014.0
20260509021504 25 0.0 0.0 0.00 0.00 0.00 57 1014.0
20260509014504 24 0.0 0.0 0.00 0.00 0.00 58 1014.1
20260509011505 25 0.0 0.0 0.00 0.00 0.00 55 1014.0
20260509004504 25 0.0 0.0 0.00 0.00 0.00 56 1014.1
20260509001505 26 0.0 0.0 0.00 0.00 0.00 51 1013.9
20260508234504 26 0.0 0.0 0.00 0.00 0.00 50 1013.6
20260508231504 26 0.0 0.0 0.00 0.00 0.00 50 1013.9
20260508224504 26 0.0 0.0 0.00 0.00 0.00 50 1014.0
20260508221504 27 0.0 0.0 0.00 0.00 0.00 50 1013.8
20260508214504 27 0.0 0.0 0.00 0.00 0.00 48 1013.5